[[{"header":{"parameterUnit":"m.s-1","parameterCategory":1,"la1":30.2991,"la2":30.254,"lo1":-89.0895,"lo2":-89.0444,"dy":0.0017,"dx":0.0017,"nx":28,"ny":28,"refTime":"2025-09-14T21:00:00:Z","depth":0,"parameterNumber":2,"parameterNumberName":"U-component_of_WINDS"},"data":[0,0,0,0,0,0,0,0,0,0,0,0,0,0,0,0,0,0,0,0,0,0,0,0,0,0,0,0,0,0,0,0,0,0,0,0,0,0,0,0,0,0,0,0,0,0,0,0,0,0,0,0,0,0,0,0,0,0,2.2378,2.2378,0,2.2425,2.2426,2.2426,2.2366,2.2364,2.2361,2.2359,2.2408,2.2412,2.2415,0,0,0,0,0,0,0,0,0,0,0,0,0,2.2233,2.2236,2.2378,2.2378,2.2379,2.2425,2.2426,2.2427,2.2366,2.2363,2.2361,2.2358,2.2407,2.2411,2.2415,0,0,0,0,0,0,0,0,0,0,0,0,0,2.229,2.2237,2.2378,2.2354,2.2353,2.2425,2.2426,2.2427,2.2367,2.2363,2.236,2.2357,2.2406,2.2411,2.2416,2.2514,0,0,2.2431,2.2434,0,0,0,0,0,0,0,0,2.2286,2.2295,2.2357,2.2356,2.2354,2.2386,2.2393,2.2456,2.2368,2.2361,2.2359,2.2355,2.2404,2.2409,2.2425,2.2516,2.2518,2.2432,2.2435,2.2437,2.2439,0,0,0,0,0,0,0,2.2282,2.2292,2.2396,2.2358,2.2356,2.2341,2.2345,2.2404,2.2401,2.2362,2.2357,2.2364,2.2402,2.242,2.2426,2.2519,2.2432,2.2436,2.2439,2.2441,2.2689,2.2692,0,0,0,0,0,0,2.2281,2.229,2.2395,2.2398,2.2311,2.2346,2.2351,2.2379,2.24,2.24,2.2367,2.2361,2.2413,2.242,2.2427,2.254,2.2437,2.2442,2.2445,2.2685,2.269,2.2693,0,0,0,0,0,0,2.2278,2.2291,2.2393,2.2343,2.2354,2.2352,2.2384,2.2382,2.24,2.2404,2.2403,2.2386,2.2411,2.242,2.2492,2.2541,2.2444,2.2449,2.2681,2.2687,2.2692,2.277,0,0,0,0,0,0,2.2275,2.2291,2.2328,2.2344,2.2357,2.2458,2.2388,2.2385,2.2409,2.2402,2.2421,2.2421,2.2409,2.2485,2.2497,2.2547,2.2453,2.2677,2.2684,2.269,2.2763,2.2777,2.2789,0,0,0,0,0,2.227,2.2349,2.2331,2.2344,2.2404,2.2461,2.2468,2.2452,2.2413,2.245,2.2452,2.2421,2.2534,2.2493,2.2506,2.2558,2.2674,2.2682,2.2689,2.2757,2.2774,2.2789,0,0,0,0,0,0,2.2341,2.2351,2.233,2.2418,2.2439,2.245,2.2497,2.2472,2.2505,2.2497,2.2476,2.2481,2.2557,2.2565,2.2518,2.2652,2.2597,2.2608,2.2644,2.266,2.2673,2.2669,2.2457,0,0,0,0,0,2.2367,2.2412,2.2418,2.2494,2.2506,2.25,2.2524,2.2509,2.253,2.2539,2.2546,2.2568,2.2608,2.2635,2.2672,2.2764,2.2766,2.2806,2.2819,2.283,2.2839,2.2885,2.2902,2.272,2.272,2.2719,0,0,2.2421,2.2432,2.2462,2.2509,2.2523,2.2569,2.2508,2.256,2.2593,2.2547,2.2614,2.262,2.2643,2.2724,2.276,2.2733,2.289,2.284,2.2849,2.2852,2.2895,2.2912,2.2928,2.2725,2.2724,2.2723,0,0,2.2541,2.2556,2.2619,2.2634,2.2656,2.2651,2.2667,2.2682,2.2684,2.2751,2.2716,2.2756,2.2826,2.2842,2.286,2.2984,2.2955,2.2997,2.3066,2.3111,2.3125,2.3138,2.318,2.3195,2.3007,2.3007,2.3007,0,2.2606,2.2674,2.2655,2.2709,2.2729,2.2688,2.2751,2.2767,2.2801,2.2816,2.2785,2.287,2.2883,2.2966,2.2996,2.3012,2.3027,2.2994,2.3125,2.3137,2.3149,2.3188,2.3204,2.3012,2.3011,2.3011,2.301,0,2.275,2.2798,2.2846,2.2878,2.2905,2.2963,2.2952,2.2981,2.2964,2.2962,2.3029,2.3042,2.308,2.3099,2.3084,2.3179,2.3161,2.3128,2.3073,2.3171,2.3208,2.3223,2.3018,2.3017,2.3015,2.3014,0,0,2.2919,2.2937,2.2955,2.2967,2.2988,2.3024,2.308,2.3116,2.314,2.3164,2.3209,2.3268,2.3237,2.3257,2.3242,2.3282,2.3376,2.3244,2.3244,2.3266,2.3479,2.3502,2.352,2.3358,2.3361,2.3363,2.3476,0,2.3037,2.3133,2.3116,2.3208,2.3251,2.3211,2.3259,2.3276,2.3275,2.3311,2.331,2.3351,2.3308,2.3319,2.3357,2.3357,2.3418,2.3349,2.3397,2.3399,2.3391,2.354,2.3565,2.3671,2.3491,2.3493,2.3495,0,2.319,2.3217,2.3313,2.3324,2.3341,2.3385,2.3414,2.3449,2.3467,2.3463,2.3485,2.3462,2.3516,2.3461,2.3533,2.3486,2.3505,2.3508,2.3511,2.3514,2.3452,2.3544,2.3705,2.372,2.3518,2.3516,2.3514,0,2.3299,2.3361,2.3425,2.3438,2.3453,2.3484,2.3491,2.3506,2.3527,2.3554,2.3567,2.3601,2.3618,2.3644,2.363,2.3591,2.3704,2.3648,2.3701,2.3701,2.3726,2.3724,2.389,2.3742,2.3741,2.3741,2.3741,0,2.3433,2.3493,2.3474,2.3514,2.3579,2.3559,2.3624,2.3627,2.3639,2.3678,2.3647,2.3683,2.3664,2.3699,2.3689,2.3749,2.3758,2.3756,2.3752,2.3757,2.3757,2.3768,2.376,2.3745,2.3744,2.3743,2.3743,0,2.3567,2.3557,2.3624,2.3632,2.3635,2.3682,2.3688,2.3724,2.372,2.3769,2.378,2.3774,2.3813,2.3802,2.3846,2.3838,2.3913,2.3902,2.3907,2.3903,2.3956,2.395,2.4133,2.4154,2.3994,2.3996,2.3997,0,2.3652,2.3696,2.3708,2.3731,2.374,2.3778,2.38,2.3781,2.3804,2.3826,2.3859,2.3896,2.3924,2.3988,2.3987,2.4019,2.4006,2.4068,2.4011,2.4014,2.4004,2.4001,2.4004,2.4079,2.4081,2.4082,2.4084,0,2.3803,2.3795,2.3827,2.3856,2.3882,2.3905,2.3925,2.3945,2.3928,2.3955,2.3995,2.4016,2.4059,2.4094,2.4123,2.413,2.4104,2.4102,2.4115,2.412,2.412,2.4118,2.3936,2.4097,2.4096,2.4095,2.4094,2.4094,2.3913,2.395,2.3962,2.3998,2.401,2.4029,2.4062,2.4061,2.4093,2.4126,2.4113,2.4157,2.4171,2.4207,2.4217,2.4251,2.4227,2.4248,2.4252,2.4257,2.4262,2.4117,2.4257,2.4256,2.4256,2.4256,2.4255,0,2.4061,2.4066,2.4099,2.4126,2.4154,2.4125,2.4145,2.417,2.4209,2.4224,2.4251,2.4295,2.4328,2.4329,2.436,2.4387,2.4375,2.4395,2.4392,2.4394,2.4283,2.4267,2.4404,2.4404,2.4404,2.4404,2.4404,2.4404,2.414,2.4199,2.4193,2.4257,2.4262,2.4304,2.4317,2.4333,2.4345,2.4394,2.4422,2.4422,2.443,2.4461,2.449,2.449,2.4502,2.4526,2.4521,2.4417,2.4402,2.4388,2.4373,2.4529,2.453,2.4628,2.4629,2.463]},{"header":{"parameterUnit":"m.s-1","parameterCategory":1,"la1":30.2991,"la2":30.254,"lo1":-89.0895,"lo2":-89.0444,"dy":0.0017,"dx":0.0017,"nx":28,"ny":28,"refTime":"2025-09-14T21:00:00:Z","depth":0,"parameterNumber":3,"parameterNumberName":"V-component_of_WINDS"},"data":[0,0,0,0,0,0,0,0,0,0,0,0,0,0,0,0,0,0,0,0,0,0,0,0,0,0,0,0,0,0,0,0,0,0,0,0,0,0,0,0,0,0,0,0,0,0,0,0,0,0,0,0,0,0,0,0,0,0,0.0932,0.0933,0,0.0981,0.0982,0.0983,0.0992,0.0992,0.0991,0.0991,0.1041,0.1043,0.1044,0,0,0,0,0,0,0,0,0,0,0,0,0,0.0845,0.0846,0.0932,0.0933,0.0933,0.0981,0.0982,0.0983,0.0992,0.0992,0.0991,0.0991,0.104,0.1042,0.1044,0,0,0,0,0,0,0,0,0,0,0,0,0,0.0887,0.0847,0.0932,0.0944,0.0946,0.0981,0.0982,0.0983,0.0992,0.0992,0.0991,0.0991,0.104,0.1042,0.1045,0.1072,0,0,0.1052,0.1054,0,0,0,0,0,0,0,0,0.0885,0.089,0.0942,0.0943,0.0945,0.098,0.097,0.1013,0.0993,0.0975,0.0991,0.099,0.1021,0.1025,0.1036,0.1074,0.1076,0.1053,0.1054,0.1055,0.1056,0,0,0,0,0,0,0,0.0882,0.0888,0.0952,0.0942,0.0944,0.0946,0.0952,0.0978,0.1,0.0976,0.0977,0.0983,0.1022,0.1033,0.1037,0.1077,0.1053,0.1055,0.1056,0.1057,0.1138,0.1139,0,0,0,0,0,0,0.0877,0.0886,0.095,0.0953,0.0913,0.0948,0.0954,0.0969,0.1,0.1004,0.0983,0.0983,0.1029,0.1034,0.1039,0.1072,0.1055,0.1058,0.1059,0.1138,0.1139,0.1139,0,0,0,0,0,0,0.0875,0.0883,0.0948,0.092,0.0928,0.095,0.0967,0.0971,0.0982,0.1006,0.101,0.0991,0.1029,0.1035,0.1063,0.1074,0.1059,0.1061,0.1137,0.1138,0.1139,0.1138,0,0,0,0,0,0,0.0872,0.0882,0.0893,0.092,0.093,0.0972,0.0968,0.0972,0.0986,0.0987,0.1014,0.1017,0.1029,0.1059,0.1066,0.1077,0.1063,0.1136,0.1138,0.1139,0.1138,0.1139,0.114,0,0,0,0,0,0.0869,0.0891,0.0894,0.0901,0.0944,0.0973,0.0979,0.0992,0.0987,0.0998,0.1013,0.1017,0.1071,0.1062,0.1069,0.1081,0.1136,0.1137,0.1139,0.1137,0.1139,0.114,0,0,0,0,0,0,0.0865,0.0895,0.0898,0.0929,0.0948,0.0975,0.0989,0.0993,0.1014,0.1014,0.1029,0.1034,0.1061,0.1074,0.1064,0.1108,0.1103,0.1106,0.1099,0.1101,0.1103,0.1099,0.1065,0,0,0,0,0,0.0868,0.0889,0.0914,0.0939,0.0948,0.0967,0.098,0.0988,0.1009,0.1017,0.1034,0.1053,0.1075,0.1089,0.111,0.1139,0.1144,0.1151,0.1152,0.1153,0.1156,0.1171,0.1173,0.1144,0.1144,0.1144,0,0,0.0874,0.0892,0.0905,0.0938,0.0954,0.0975,0.0974,0.0997,0.1012,0.102,0.1048,0.1061,0.1083,0.1112,0.1125,0.1123,0.1165,0.1155,0.1156,0.1158,0.1172,0.1175,0.1178,0.1145,0.1145,0.1145,0,0,0.0895,0.0912,0.0934,0.095,0.0973,0.0985,0.099,0.1016,0.1025,0.1052,0.1058,0.1077,0.1114,0.1129,0.1142,0.1167,0.117,0.1173,0.1181,0.1196,0.1198,0.12,0.1208,0.1211,0.1175,0.1175,0.1175,0,0.0899,0.0932,0.0945,0.0967,0.0981,0.0989,0.1011,0.1025,0.1055,0.1064,0.1061,0.1106,0.1122,0.1154,0.116,0.117,0.1176,0.117,0.1197,0.1199,0.1201,0.1209,0.1212,0.1175,0.1175,0.1175,0.1175,0,0.0936,0.0958,0.0973,0.1001,0.1016,0.1038,0.1054,0.1068,0.1074,0.1086,0.1113,0.1132,0.1156,0.1164,0.1171,0.1196,0.1194,0.1194,0.1189,0.1204,0.1211,0.1215,0.1176,0.1176,0.1176,0.1175,0,0,0.0957,0.0991,0.0996,0.1008,0.1034,0.1051,0.1073,0.1097,0.1108,0.1127,0.1145,0.1176,0.1175,0.1189,0.1197,0.121,0.1227,0.1208,0.1209,0.1211,0.1255,0.1256,0.1259,0.123,0.123,0.1231,0.1253,0,0.0982,0.1021,0.1032,0.1065,0.1085,0.1092,0.111,0.1128,0.1139,0.1157,0.1169,0.119,0.1188,0.1196,0.1209,0.1223,0.1237,0.1221,0.1246,0.1247,0.124,0.1263,0.1264,0.1285,0.1257,0.1257,0.1258,0,0.1016,0.1036,0.107,0.1092,0.1101,0.1118,0.114,0.1157,0.1176,0.1183,0.1198,0.1205,0.1227,0.122,0.1249,0.1238,0.1249,0.1257,0.1258,0.1261,0.1253,0.1267,0.1292,0.1294,0.1263,0.1262,0.1262,0,0.1028,0.1063,0.1088,0.1098,0.1125,0.1136,0.1147,0.1166,0.1179,0.1198,0.1206,0.1227,0.1239,0.1254,0.1266,0.126,0.1294,0.1288,0.13,0.1299,0.1307,0.1307,0.1334,0.1314,0.1314,0.1314,0.1314,0,0.1054,0.1075,0.1093,0.1109,0.1132,0.1144,0.1166,0.1178,0.1194,0.1211,0.1218,0.1234,0.1248,0.1265,0.1274,0.1296,0.1302,0.1307,0.131,0.1307,0.1306,0.1315,0.1313,0.1315,0.1314,0.1314,0.1314,0,0.1071,0.1085,0.1112,0.1135,0.1141,0.1157,0.1175,0.119,0.12,0.1222,0.1228,0.1244,0.1265,0.1277,0.1304,0.131,0.1334,0.1336,0.1328,0.1329,0.1339,0.1338,0.1373,0.1378,0.1355,0.1355,0.1355,0,0.1087,0.1104,0.1127,0.1139,0.1151,0.117,0.1183,0.1195,0.1208,0.123,0.1242,0.1262,0.128,0.1312,0.1326,0.1346,0.1348,0.1359,0.1351,0.1347,0.1348,0.1347,0.1348,0.136,0.136,0.1361,0.1361,0,0.1114,0.1119,0.1138,0.1159,0.1174,0.1191,0.1208,0.1217,0.1231,0.1245,0.1266,0.128,0.1306,0.1326,0.1347,0.1358,0.1361,0.1363,0.1366,0.1364,0.1359,0.1361,0.1331,0.1362,0.1362,0.1362,0.1362,0.1362,0.1131,0.1145,0.1164,0.1184,0.1197,0.1213,0.1227,0.1239,0.1257,0.1279,0.1285,0.1306,0.1324,0.1352,0.1363,0.1379,0.1378,0.1383,0.1385,0.1386,0.1386,0.1356,0.1383,0.1383,0.1383,0.1383,0.1383,0,0.1158,0.117,0.1188,0.1211,0.1226,0.1228,0.1246,0.1259,0.1278,0.1294,0.131,0.1334,0.1353,0.1368,0.1387,0.1398,0.14,0.1402,0.1402,0.1404,0.1386,0.1381,0.14,0.14,0.14,0.14,0.14,0.14,0.1174,0.1197,0.1205,0.1234,0.1246,0.1268,0.1277,0.1291,0.1303,0.1329,0.1345,0.1355,0.137,0.139,0.1408,0.1411,0.1418,0.142,0.1424,0.1407,0.1406,0.1404,0.1399,0.1422,0.1422,0.1441,0.1441,0.1441]}]]